Fort Benning, AL

10:47 PM CDT on August 23, 2017 (GMT -0500)
Lawson Army Air Field

Weather History for KLSF - December, 2012

Change the Weather History Date:

Wednesday, December 12, 2012

  Actual Average Record
Temperature  
Mean Temperature 46 °F -  
Max Temperature 51 °F 58 °F 77 °F (1996)
Min Temperature 40 °F 35 °F 23 °F (2014)
Degree Days  
Heating Degree Days 19    
Moisture  
Dew Point 38 °F    
Average Humidity 71    
Maximum Humidity 88    
Minimum Humidity 62    
Precipitation  
Precipitation 0.00 in - - ()
Sea Level Pressure  
Sea Level Pressure 30.17 in    
Wind  
Wind Speed 5 mph (North)    
Max Wind Speed 8 mph    
Max Gust Speed -    
Visibility 10 miles    
Events Rain    
Averages and records for this station are not official NWS values.
T = Trace of Precipitation, MM = Missing Value Source: NWS Daily Summary

Daily Weather History Graph

Daily Weather History Graph

Search for Another Location

Airport or City:

Trip Planner

Search our weather history database for the weather conditions in past years. The results will help you decide how hot, cold, wet, or windy it might be!

Date:

Astronomy

Dec. 12, 2012 Rise Set
Actual Time 7:32 AM EST 5:35 PM EST
Civil Twilight 7:05 AM EST 6:02 PM EST
Nautical Twilight 6:34 AM EST 6:33 PM EST
Astronomical Twilight 6:04 AM EST 7:03 PM EST
Moon 6:36 AM EST (12/12) 5:10 PM EST (12/12)
Length of Visible Light 10h 57m
Length of Day
10h 03m
Waning Crescent, 1% of the Moon is Illuminated
Dec 12
Waning Crescent
Dec 13
New
Dec 20
First Quarter
Dec 28
Full
Jan 4
Last Quarter

Hourly Weather History & Observations

Time (EST) Temp. Windchill Dew Point Humidity Pressure Visibility Wind Dir Wind Speed Gust Speed Precip Events Conditions
12:48 AM 42.8 °F 38.0 °F 35.6 °F 76% 30.17 in 10.0 mi NNW 8.1 mph - N/A Rain Light Rain
12:55 AM 42.1 °F 38.4 °F 34.7 °F 75% 30.17 in 10.0 mi NNW 5.8 mph - 0.00 in Rain Light Rain
1:20 AM 41.0 °F 38.0 °F 33.8 °F 76% 30.15 in 10.0 mi North 4.6 mph - N/A   Partly Cloudy
1:55 AM 42.1 °F - 33.4 °F 71% 30.17 in 10.0 mi Calm Calm - 0.00 in   Clear
2:55 AM 42.1 °F 39.2 °F 33.8 °F 72% 30.14 in 10.0 mi NNE 4.6 mph - N/A   Partly Cloudy
3:55 AM 41.9 °F - 32.9 °F 70% 30.14 in 10.0 mi Calm Calm - N/A   Partly Cloudy
4:55 AM 41.5 °F 39.6 °F 33.8 °F 74% 30.14 in 10.0 mi NNE 3.5 mph - N/A   Partly Cloudy
5:55 AM 41.7 °F 36.7 °F 34.0 °F 74% 30.14 in 10.0 mi North 8.1 mph - N/A   Overcast
6:55 AM 41.9 °F 36.9 °F 33.6 °F 72% 30.14 in 10.0 mi NNW 8.1 mph - N/A   Overcast
7:55 AM 42.1 °F 38.4 °F 33.6 °F 72% 30.17 in 10.0 mi North 5.8 mph - N/A   Overcast
8:55 AM 42.6 °F - 33.6 °F 70% 30.19 in 10.0 mi Calm Calm - N/A   Overcast
9:55 AM 43.7 °F 40.3 °F 34.7 °F 71% 30.18 in 10.0 mi ENE 5.8 mph - N/A   Overcast
10:55 AM 45.5 °F 44.2 °F 36.0 °F 69% 30.20 in 10.0 mi ENE 3.5 mph - N/A   Partly Cloudy
11:55 AM 46.6 °F - 36.5 °F 68% 30.18 in 10.0 mi Calm Calm - N/A   Clear
12:55 PM 47.7 °F - 37.0 °F 67% 30.16 in 10.0 mi NNE 3.5 mph - N/A   Mostly Cloudy
1:55 PM 49.8 °F - 38.3 °F 65% 30.14 in 10.0 mi NNW 5.8 mph - N/A   Overcast
2:55 PM 50.2 °F - 38.8 °F 65% 30.17 in 10.0 mi ENE 3.5 mph - N/A   Overcast
3:55 PM 51.8 °F - 39.9 °F 64% 30.15 in 10.0 mi North 6.9 mph - N/A   Overcast
4:55 PM 51.3 °F - 40.1 °F 66% 30.16 in 10.0 mi North 4.6 mph - N/A   Overcast
4:56 PM 51.8 °F - 39.2 °F 62% 30.16 in 10.0 mi NNE 4.6 mph - N/A   Overcast
5:00 PM 51.8 °F - 39.2 °F 62% 30.16 in 10.0 mi NNE 5.8 mph - N/A   Overcast
5:12 PM 51.8 °F - 39.2 °F 62% 30.17 in 10.0 mi North 3.5 mph - N/A   Overcast
5:19 PM 51.8 °F - 41.0 °F 67% 30.16 in 10.0 mi NNE 3.5 mph - N/A   Overcast
5:31 PM 51.8 °F - 41.0 °F 67% 30.18 in 10.0 mi NNW 4.6 mph - N/A   Overcast
5:53 PM 50.0 °F - 41.0 °F 71% 30.16 in 10.0 mi North 5.8 mph - N/A   Mostly Cloudy
5:55 PM 49.6 °F - 40.6 °F 71% 30.16 in 10.0 mi North 6.9 mph - N/A   Mostly Cloudy
6:01 PM 48.2 °F - 41.0 °F 76% 30.17 in 10.0 mi NNW 6.9 mph - N/A   Scattered Clouds
6:04 PM 48.2 °F - 41.0 °F 76% 30.17 in 10.0 mi NNW 6.9 mph - N/A   Mostly Cloudy
6:08 PM 46.4 °F 42.9 °F 39.2 °F 76% 30.17 in 10.0 mi NW 6.9 mph - N/A   Mostly Cloudy
6:55 PM 48.7 °F - 41.2 °F 75% 30.19 in 10.0 mi NW 3.5 mph - N/A   Overcast
7:55 PM 51.1 °F - 41.0 °F 68% 30.21 in 10.0 mi North 4.6 mph - N/A   Overcast
8:55 PM 50.9 °F - 41.0 °F 69% 30.21 in 10.0 mi Calm Calm - N/A   Overcast
9:55 PM 48.9 °F - 40.5 °F 73% 30.20 in 10.0 mi NE 4.6 mph - N/A   Overcast
10:55 PM 46.0 °F 44.8 °F 39.7 °F 79% 30.22 in 10.0 mi North 3.5 mph - N/A   Clear
11:55 PM 40.1 °F 36.1 °F 36.9 °F 88% 30.22 in 10.0 mi NNW 5.8 mph - N/A   Scattered Clouds